Location: Albany
(35.0000°S, 118.0000°E)
Time: 19:41:17
(UTC-04:00)

Cosmos 1346 Rocket - Visible Passes

Search period start: 16 October 2017 00:00
Search period end: 26 October 2017 00:00
Orbit: 520 x 561 km, 81.2° (Epoch: 16 October)

Date Brightness Start Highest point End Pass type
(mag) Time Alt. Az. Time Alt. Az. Time Alt. Az.
16 Oct 3.8 08:33:54 10° S 08:36:48 43° S 08:36:48 43° S visible
17 Oct 3.2 08:26:47 10° S 08:30:16 60° S 08:30:16 60° S visible
18 Oct 2.8 08:19:40 10° S 08:23:46 86° SSE 08:23:46 86° SSE visible
19 Oct 2.8 08:12:33 10° S 08:16:44 88° WNW 08:17:20 65° N visible
20 Oct 2.8 08:05:27 10° S 08:09:37 85° W 08:10:56 43° N visible
21 Oct 2.9 07:58:20 10° S 08:02:30 81° W 08:04:35 28° N visible
22 Oct 2.9 07:51:13 10° S 07:55:23 78° W 07:58:19 18° N visible
23 Oct 3.0 07:44:06 10° SSW 07:48:16 75° W 07:52:05 11° N visible
24 Oct 3.1 07:37:00 10° SSW 07:41:08 72° W 07:45:10 10° N visible
25 Oct 3.2 07:29:53 10° SSW 07:34:01 69° W 07:38:02 10° N visible
